Location: Gro�sch�nbrunn
(49.5760°N, 11.8868°E)
Time: 04:45:24
(UTC+00:00)

Cosmos 1766 - Pass Details

Date: 18 September 2020
Orbit: 522 x 543 km, 82.5° (Epoch: 20 October)

Event Time Altitude Azimuth Distance (km) Brightness Sun altitude
Exits shadow 19:34:04 39° 40° (NE) 809 4.0 -21.7°
Drops below altitude 10° 19:36:49 10° 17° (NNE) 1,803 6.1 -22.1°
Sets 19:39:00 0° 14° (NNE) 2,703 7.1 -22.4°
